RH
68 68 66 68 69 70 71 72 73 74 74 73 73 73 73 73 73 73 74 74 74 76 80 82 80 82 51 22 29 49 46 44 34 36 38 33 25 27 24 28 36 34 30 33 31 36 34
68 69 65 67 68 71 71 72 72 73 73 73 72 73 73 73 74 74 74 74 74 80 82 82 79 78 37 18 42 53 37 36 36 36 40 34 32 32 28 28 31 35 38 35 36 34 36
65 65 66 67 69 71 70 71 72 73 73 73 72 72 73 74 74 75 75 74 79 82 81 75 75 49 27 31 41 41 36 39 40 36 39 44 39 32 37 38 44 46 37 29 32 35 34
64 65 67 69 69 70 70 71 72 72 72 73 72 73 74 76 76 76 77 80 83 76 72 74 65 37 26 33 44 38 35 37 40 41 44 46 40 41 36 42 36 35 38 25 30 41 39
64 65 66 68 68 69 70 71 72 72 73 73 73 74 76 78 80 82 84 83 79 70 69 63 45 35 34 45 38 42 37 39 43 44 46 42 44 46 45 33 24 30 22 27 22 35 38
66 66 67 67 67 68 69 70 72 73 73 73 74 76 78 79 82 84 81 74 66 62 52 46 34 25 31 41 41 42 39 38 43 43 43 49 46 36 38 28 22 18 22 26 28 28 37
65 66 66 67 68 68 69 70 71 72 72 74 75 79 81 81 81 80 53 31 26 27 31 32 33 29 33 36 35 42 39 40 40 34 30 47 32 26 22 29 28 24 25 26 23 24 30
65 64 65 67 67 68 69 70 71 71 72 73 76 81 83 82 80 70 52 48 65 64 30 39 47 41 38 36 34 38 36 36 36 33 44 35 28 29 38 39 39 38 33 29 28 31 36
63 63 65 66 67 68 69 70 70 70 71 73 77 82 83 81 72 61 62 75 70 60 30 32 40 38 37 35 38 37 40 43 38 39 38 29 26 38 37 36 37 31 30 22 26 31 32
63 64 65 66 68 68 69 70 70 70 71 74 77 81 83 78 56 62 63 69 68 63 29 30 37 39 36 37 40 44 41 42 43 40 42 36 40 41 40 35 30 24 23 29 36 34 31
62 64 65 67 68 68 69 70 70 70 71 74 78 81 80 75 58 56 66 68 69 53 72 24 38 33 38 38 43 45 44 42 43 40 42 27 35 40 39 28 29 21 34 35 36 34 39
62 63 65 67 68 69 69 70 69 69 71 74 78 81 73 57 57 67 71 71 55 47 88 33 36 36 26 29 38 43 45 41 44 50 48 41 43 42 32 32 33 34 35 38 44 39 62
62 63 65 66 67 68 68 69 68 68 70 74 79 80 66 58 52 65 69 48 38 56 29 39 43 40 38 32 35 42 49 48 50 64 36 34 32 41 43 41 40 39 37 52 44 68 33
61 63 65 65 67 67 68 68 67 69 71 74 79 73 69 40 55 74 44 23 44 27 38 47 46 38 26 37 29 25 40 47 50 54 53 60 46 37 42 40 41 41 40 43 33 26 18
62 63 64 66 67 67 67 67 66 68 71 75 70 60 54 42 62 58 27 41 41 39 53 51 38 25 24 37 34 25 43 55 51 50 63 62 43 39 35 35 35 38 46 35 44 33 46
60 61 62 66 66 67 67 66 66 67 72 73 58 49 46 45 65 41 27 36 55 54 53 48 31 41 32 46 32 32 33 51 54 47 50 60 63 44 43 34 37 37 36 47 42 60 48
62 60 62 65 67 67 66 65 65 66 72 68 52 34 42 44 54 30 33 53 63 49 53 51 48 47 57 59 61 52 52 52 46 47 45 50 62 39 39 30 44 40 38 37 44 57 56
61 59 62 65 66 67 66 65 64 66 69 51 46 32 47 48 30 48 49 52 54 51 45 60 61 59 67 64 59 62 66 52 38 35 40 40 50 63 39 32 36 43 46 56 81 65 54
60 59 62 65 66 66 65 64 63 65 68 51 38 37 38 43 26 40 44 55 50 46 50 52 57 51 50 65 50 60 66 51 43 33 33 36 39 45 23 25 25 31 24 22 28 35 60
60 60 62 64 65 65 65 63 63 64 58 44 31 36 31 40 40 32 41 51 50 49 49 44 48 41 42 50 48 54 46 51 42 36 46 31 52 52 52 38 31 37 34 35 44 68 48
61 61 61 63 64 64 65 61 64 64 57 40 41 47 49 30 39 41 40 45 47 46 47 44 45 41 39 42 38 44 43 36 37 48 40 40 52 45 40 37 38 42 42 45 55 54 76
63 60 60 63 65 64 64 62 63 65 62 52 35 40 48 47 47 38 49 56 47 51 42 52 43 40 40 32 29 27 46 51 44 43 44 45 54 51 52 32 32 44 51 59 54 61 53
63 59 60 64 65 64 64 62 63 69 56 58 74 51 32 54 47 33 46 51 51 46 54 43 41 40 45 45 48 44 45 45 44 48 54 56 58 54 46 33 34 51 76 69 75 70 76
63 60 61 64 63 65 64 62 66 66 71 63 75 42 27 45 40 45 54 52 49 52 47 51 48 46 49 50 50 49 54 58 59 57 53 57 63 52 60 41 57 87 65 82 77 80 85
64 61 62 63 62 63 64 66 64 69 66 71 81 54 53 50 47 54 53 57 54 54 55 51 52 52 54 56 41 37 36 38 43 47 58 55 64 58 64 45 32 71 64 75 83 73 79
65 61 62 62 65 62 64 68 70 65 70 76 86 75 73 70 51 46 56 53 48 52 53 55 52 54 56 48 46 46 39 42 45 40 47 58 66 78 52 66 59 72 54 43 60 79 65
67 63 65 66 66 63 67 70 69 68 70 79 87 81 74 72 60 52 48 52 60 64 52 61 59 60 60 50 47 48 48 60 51 51 41 46 59 72 50 56 46 75 52 42 89 76 58
66 63 63 64 64 64 66 70 69 70 70 82 81 82 74 84 69 64 60 64 67 60 47 60 60 62 58 56 53 57 58 48 56 50 64 67 64 58 68 76 68 64 46 62 69 58 54
66 64 64 61 63 64 66 67 70 66 70 74 78 78 74 82 75 71 70 66 61 55 60 76 68 73 70 70 66 60 53 48 58 64 61 67 74 73 72 64 75 56 50 64 57 61 61
Wind_Speed
10 9 10 10 11 12 13 14 15 15 16 16 16 16 16 16 16 15 15 14 14 13 13 10 8 7 3 2 3 2 3 6 3 2 4 1 1 1 2 1 2 5 1 3 4 5 6
9 9 10 11 12 13 14 15 15 15 16 16 16 17 17 17 17 16 15 14 14 13 10 7 5 5 1 2 3 2 3 1 4 2 2 2 1 1 3 2 4 1 5 7 7 10 8
7 8 10 11 12 14 14 14 15 16 16 17 18 18 18 18 18 17 16 15 14 11 5 3 1 1 1 4 3 2 2 3 3 2 2 2 2 2 2 2 1 2 7 6 11 6 6
5 7 9 11 13 13 14 15 15 16 17 18 18 19 19 18 17 16 15 13 11 5 3 1 2 2 4 2 1 2 1 3 4 5 4 3 2 3 2 1 2 3 3 5 4 6 2
5 6 7 10 11 13 14 16 17 17 17 18 18 19 18 18 17 16 14 12 5 2 2 2 2 3 4 1 1 2 3 1 2 4 4 4 1 2 3 4 5 4 6 6 4 6 5
5 6 8 9 11 13 14 15 17 18 19 18 18 18 17 17 17 15 12 3 2 1 1 1 1 3 1 1 1 1 2 2 2 1 2 1 1 3 3 6 6 4 6 5 8 3 6
4 5 6 9 11 12 13 15 16 17 18 19 19 18 16 16 17 13 2 1 2 3 7 4 2 1 0 2 1 2 1 2 0 1 2 2 5 7 3 5 3 4 7 11 13 6 6
4 4 6 8 10 12 13 13 14 16 17 19 19 18 17 15 14 8 2 5 4 3 2 1 2 2 2 2 1 1 1 3 2 2 1 4 6 1 1 2 5 6 8 13 11 8 7
3 3 5 7 9 11 13 15 15 15 15 17 17 18 18 17 5 3 8 4 4 2 1 2 2 2 2 2 0 2 2 0 1 3 3 5 2 6 3 6 7 9 12 12 11 4 9
1 3 5 6 9 11 13 14 15 16 16 16 16 14 16 16 2 1 4 5 4 3 2 4 2 2 1 2 1 3 2 3 1 3 3 8 2 5 5 7 8 14 10 12 7 6 9
1 3 5 8 10 11 12 14 16 17 16 15 15 14 11 10 3 2 4 5 1 4 1 2 2 2 2 3 4 4 2 1 3 1 3 3 3 6 9 9 10 4 3 4 5 10 10
1 3 5 8 9 11 13 14 15 16 16 16 13 12 5 2 2 2 5 2 3 2 3 1 2 5 3 3 3 3 1 1 0 3 5 13 2 5 7 4 9 3 3 3 3 6 9
1 2 5 7 9 11 13 14 16 16 15 15 11 8 4 1 2 5 3 3 2 2 1 2 2 4 4 4 3 6 4 7 6 7 2 5 8 2 3 6 2 6 7 4 7 7 10
1 4 7 8 9 11 13 15 16 17 15 14 8 3 3 4 4 3 2 3 3 1 1 1 2 5 2 7 3 6 1 3 11 6 6 6 4 1 2 3 6 6 6 8 12 14 16
1 4 6 8 10 12 14 15 16 16 14 10 2 1 1 7 4 1 2 1 1 1 1 4 3 2 3 1 5 2 6 5 7 10 5 7 6 3 4 5 5 2 7 8 13 19 17
3 2 5 8 10 12 14 15 17 16 13 5 2 1 2 9 3 1 1 2 2 2 3 1 2 3 1 5 6 5 2 4 4 8 4 4 12 1 6 7 4 5 10 9 9 17 24
4 2 4 7 11 12 14 15 17 16 13 2 1 1 2 7 3 1 1 3 3 3 3 4 1 0 2 2 3 2 3 4 6 7 4 7 4 7 12 4 12 14 14 14 13 9 14
4 1 4 8 10 13 15 15 16 13 8 3 2 2 4 4 1 2 3 3 3 4 7 4 3 3 2 2 2 2 0 4 6 7 5 4 6 9 21 16 8 8 7 11 6 9 9
5 2 4 7 11 13 15 17 16 10 5 2 2 1 2 3 2 3 4 4 4 3 5 4 3 6 2 2 3 1 2 6 7 9 6 5 2 9 13 6 3 8 23 16 15 14 20
5 3 4 7 10 13 15 18 18 7 3 1 2 1 4 5 3 3 5 3 4 4 4 5 4 3 2 2 2 0 1 3 8 7 2 3 2 7 10 17 18 19 19 17 15 11 18
5 4 4 7 10 13 16 19 19 7 3 1 4 3 2 3 4 5 3 3 4 3 3 3 4 5 2 2 2 2 2 4 6 2 3 5 5 4 13 15 16 16 16 12 11 12 12
7 4 5 7 10 13 15 18 21 8 4 5 2 4 3 4 2 4 2 2 4 4 1 2 4 2 2 2 2 3 2 2 4 1 2 2 3 7 11 10 12 13 8 7 7 10 8
8 5 5 7 11 14 17 18 23 16 3 3 2 2 0 1 3 2 2 4 4 5 4 5 2 2 3 2 4 8 9 11 10 6 3 3 2 6 7 10 15 7 7 6 3 7 8
9 7 6 8 11 14 17 18 21 22 10 3 2 2 2 4 2 3 6 4 7 3 4 3 2 0 3 7 10 6 5 7 8 10 10 4 5 4 7 8 8 8 8 4 7 3 8
11 8 7 8 10 14 16 19 18 19 19 6 2 2 3 5 6 7 7 6 5 3 3 2 2 3 5 4 3 4 3 5 3 4 8 11 3 5 5 8 12 7 6 6 6 4 9
13 10 8 8 10 14 14 15 18 16 9 5 5 2 4 7 3 6 5 2 3 3 3 2 2 3 2 2 2 2 2 1 2 2 2 7 6 5 9 10 11 6 12 13 6 8 13
15 12 10 10 11 12 12 14 15 14 14 6 5 4 4 5 2 1 3 3 3 3 3 2 2 1 2 1 1 1 2 2 4 3 3 4 4 9 8 9 5 7 15 13 6 8 20
15 13 11 10 9 11 11 13 14 14 13 5 3 6 2 4 4 2 1 4 3 1 2 3 3 3 1 0 1 1 3 1 4 3 5 4 4 4 3 6 6 12 4 7 8 13 18
15 13 12 10 10 10 9 11 12 13 11 5 4 4 4 6 4 2 4 3 3 2 3 2 3 1 2 1 1 2 4 3 4 3 2 2 4 4 4 5 4 8 8 1 10 15 14
Wind_Direction
40 20 15 8 9 9 6 5 0 355 351 350 348 346 344 340 337 333 330 329 327 324 322 319 324 334 283 159 88 36 356 4 25 52 46 70 138 170 270 181 185 237 237 231 219 214 241
27 16 10 5 5 6 4 2 357 352 349 346 345 343 340 336 333 329 326 327 326 321 318 315 324 324 263 183 349 358 339 355 42 67 80 20 112 134 125 199 237 186 264 259 252 241 240
31 2 6 4 4 2 0 358 354 348 347 344 344 340 337 334 330 327 325 326 325 322 318 307 305 258 123 71 336 3 41 31 21 25 102 56 73 257 144 183 49 306 292 255 226 226 243
53 12 9 2 2 359 356 354 351 347 344 343 343 339 336 333 329 324 322 323 323 328 348 344 342 270 84 359 80 59 50 76 60 52 72 57 59 92 311 99 197 250 248 268 136 175 134
38 30 17 8 1 358 354 352 348 345 344 343 341 339 336 334 330 326 323 320 313 358 72 8 253 295 79 307 47 15 360 85 78 66 65 74 60 53 171 232 237 212 266 243 279 194 156
54 31 16 7 1 357 354 351 349 346 343 341 340 340 338 334 332 332 328 314 0 248 138 210 158 182 93 66 348 17 38 88 91 117 150 112 125 214 184 215 266 276 249 239 265 143 219
68 23 18 7 1 355 353 352 349 346 343 340 340 339 339 337 334 340 342 211 216 147 40 35 331 12 238 334 261 60 24 159 221 217 253 61 249 239 284 253 316 290 279 275 274 265 269
96 58 15 14 358 352 349 350 348 346 344 342 339 338 340 337 333 2 27 62 45 339 90 50 340 304 265 300 166 90 227 227 198 167 182 213 248 310 145 153 219 235 267 270 280 282 240
96 60 26 4 1 355 349 344 344 345 347 343 341 339 339 340 337 27 62 55 327 239 53 51 7 356 352 283 76 49 297 329 274 195 208 246 100 140 216 218 233 240 248 274 277 315 240
65 11 18 7 1 356 350 344 341 344 346 343 340 341 344 338 166 17 58 343 321 223 160 25 23 57 352 349 85 18 23 335 236 310 296 272 86 217 214 250 221 276 230 256 260 280 279
101 24 7 3 358 354 351 345 343 342 342 342 341 341 351 22 106 62 345 322 233 237 316 27 27 1 349 358 336 54 7 301 284 300 253 290 228 220 235 241 200 273 160 227 247 258 290
80 8 8 2 357 352 349 347 343 341 341 341 343 338 356 45 75 60 314 243 220 216 237 85 324 359 1 36 29 313 130 178 267 267 238 264 306 248 250 278 225 103 228 241 235 253 249
29 17 2 2 355 354 349 348 344 341 341 341 341 340 33 52 358 338 301 213 255 200 43 25 339 357 352 328 0 14 36 43 16 328 295 300 245 263 238 266 205 223 238 253 233 208 252
342 5 355 356 1 355 351 347 346 341 341 338 338 3 22 65 323 306 225 232 225 159 210 26 320 313 327 4 62 353 49 82 38 355 297 318 294 345 101 335 338 225 257 258 267 274 284
114 2 354 352 357 357 355 348 348 344 339 339 322 45 39 357 335 234 235 233 3 160 11 323 282 235 136 96 349 8 59 36 33 12 326 324 249 346 10 331 302 112 241 324 281 272 266
121 7 356 350 356 360 356 352 349 347 343 344 134 80 2 338 333 231 133 122 130 39 335 263 291 4 293 1 333 348 115 14 3 16 334 33 289 151 360 331 186 348 334 285 254 272 267
138 23 6 359 354 357 358 355 354 347 351 319 82 184 53 338 240 40 141 106 121 75 358 354 337 274 66 8 312 300 63 53 9 6 20 348 246 260 327 324 327 318 305 293 298 275 280
140 83 15 359 4 356 355 358 356 349 358 74 120 231 13 307 51 34 88 58 5 18 28 47 78 64 56 31 292 230 103 60 29 8 354 10 301 291 300 309 327 297 67 26 341 325 307
141 73 22 10 7 1 0 356 359 356 17 148 117 355 44 296 188 121 119 89 60 46 38 37 79 34 38 95 291 10 96 160 16 357 356 360 237 302 297 137 101 351 313 311 304 270 265
141 98 27 19 17 9 6 3 0 11 70 85 143 199 59 58 22 122 143 133 120 46 79 69 100 84 90 121 20 329 291 110 336 333 88 325 287 271 286 294 300 301 310 308 301 287 292
141 92 52 33 29 24 12 11 12 20 103 136 11 97 24 95 66 98 87 110 138 143 84 66 103 85 91 186 256 204 199 319 328 42 71 9 276 312 284 292 296 299 307 339 349 336 291
133 109 70 46 41 35 24 18 20 24 107 83 122 151 96 85 94 112 27 125 154 129 127 108 126 128 168 200 250 269 242 229 257 109 320 321 262 318 299 303 314 319 3 346 7 351 333
139 118 80 62 49 40 36 25 29 28 56 100 111 88 119 87 120 157 128 143 125 144 79 88 139 174 195 187 266 276 267 263 253 256 251 236 262 308 274 323 313 218 10 349 3 23 328
144 119 95 69 53 52 43 38 40 42 57 101 95 118 127 110 105 103 134 109 125 80 109 108 131 348 47 316 287 255 235 244 236 234 224 219 216 259 287 294 295 86 43 335 332 82 16
138 124 109 81 67 59 53 45 47 54 52 78 86 88 111 107 118 114 125 112 107 68 93 118 88 19 324 296 292 303 177 185 158 181 195 217 253 293 270 303 288 188 45 342 343 272 16
143 127 126 96 75 65 62 54 51 49 63 74 57 3 85 119 162 122 121 145 139 113 122 115 75 343 317 279 272 276 268 351 254 223 150 187 249 271 297 286 288 53 336 315 297 244 6
146 145 124 103 86 75 65 58 59 57 65 79 62 22 82 100 90 117 122 124 117 114 106 117 4 64 315 323 233 268 263 329 262 260 279 279 244 253 278 290 283 8 329 307 259 331 339
147 143 129 114 98 84 69 66 64 58 60 64 64 20 77 90 91 49 98 123 127 150 87 87 190 134 118 254 334 31 267 276 268 311 315 286 295 271 274 284 273 11 344 346 345 322 322
143 146 128 132 105 88 78 74 69 55 61 78 70 18 29 72 86 35 54 29 30 87 112 70 59 116 52 4 185 300 268 271 295 265 71 223 349 324 297 344 5 331 302 90 327 319 317